13-04-2023, 00:00:02,    277,    4.8,    5.1,   0.00,   0.00,  994.3,   77.3, -999.0
13-04-2023, 00:00:13,    237,    3.8,    5.1,   0.00,   0.00,  994.3,   76.8, -999.0
13-04-2023, 00:00:23,    249,    6.5,    5.2,   0.00,   0.00,  994.3,   76.4, -999.0
13-04-2023, 00:00:32,    263,    6.7,    5.2,   0.00,   0.00,  994.3,   76.0, -999.0
13-04-2023, 00:00:42,    272,    4.9,    5.2,   0.00,   0.00,  994.4,   75.7, -999.0
13-04-2023, 00:00:53,    275,    6.8,    5.2,   0.00,   0.00,  994.3,   75.2, -999.0
13-04-2023, 00:01:02,    270,    3.9,    5.3,   0.00,   0.00,  994.3,   75.1, -999.0
13-04-2023, 00:01:12,    306,    4.9,    5.3,   0.00,   0.00,  994.3,   74.9, -999.0
13-04-2023, 00:01:22,    246,    3.4,    5.2,   0.00,   0.00,  994.3,   74.7, -999.0
13-04-2023, 00:01:32,    284,    5.5,    5.2,   0.00,   0.00,  994.4,   74.7, -999.0
13-04-2023, 00:01:42,    264,    3.7,    5.2,   0.00,   0.00,  994.3,   74.5, -999.0
13-04-2023, 00:01:52,    282,    3.3,    5.2,   0.00,   0.00,  994.4,   74.6, -999.0
13-04-2023, 00:02:03,    308,    2.3,    5.2,   0.00,   0.00,  994.3,   74.6, -999.0
13-04-2023, 00:02:12,    301,    3.3,    5.2,   0.00,   0.00,  994.4,   74.6, -999.0
13-04-2023, 00:02:22,    265,    1.1,    5.2,   0.00,   0.00,  994.3,   74.4, -999.0
13-04-2023, 00:02:32,    269,    3.2,    5.2,   0.00,   0.00,  994.3,   74.6, -999.0
13-04-2023, 00:02:42,    269,    2.1,    5.2,   0.00,   0.00,  994.3,   74.7, -999.0
13-04-2023, 00:02:52,    255,    3.6,    5.2,   0.00,   0.00,  994.3,   74.5, -999.0
13-04-2023, 00:03:02,    248,    4.4,    5.2,   0.00,   0.00,  994.3,   74.6, -999.0
13-04-2023, 00:03:12,    214,    0.6,    5.2,   0.00,   0.00,  994.3,   74.5, -999.0
13-04-2023, 00:03:22,    292,    1.1,    5.2,   0.00,   0.00,  994.3,   74.6, -999.0
13-04-2023, 00:03:32,    259,    1.5,    5.2,   0.00,   0.00,  994.3,   74.8, -999.0
13-04-2023, 00:03:42,    303,    3.2,    5.1,   0.00,   0.00,  994.3,   74.9, -999.0
13-04-2023, 00:03:52,    258,    2.4,    5.2,   0.00,   0.00,  994.3,   74.6, -999.0
13-04-2023, 00:04:02,    278,    1.5,    5.2,   0.00,   0.00,  994.3,   74.4, -999.0
13-04-2023, 00:04:12,    264,    1.1,    5.2,   0.00,   0.00,  994.4,   74.8, -999.0
13-04-2023, 00:04:22,    254,    1.2,    5.2,   0.00,   0.00,  994.3,   74.7, -999.0
13-04-2023, 00:04:32,    273,    3.0,    5.2,   0.00,   0.00,  994.4,   74.5, -999.0
13-04-2023, 00:04:42,    270,    4.4,    5.2,   0.00,   0.00,  994.3,   74.5, -999.0
13-04-2023, 00:04:52,    269,    2.8,    5.2,   0.00,   0.00,  994.4,   74.3, -999.0
13-04-2023, 00:05:02,    272,    1.5,    5.2,   0.00,   0.00,  994.4,   74.3, -999.0
13-04-2023, 00:05:12,    252,    2.7,    5.2,   0.00,   0.00,  994.4,   74.4, -999.0
13-04-2023, 00:05:22,    290,    1.7,    5.2,   0.00,   0.00,  994.4,   74.4, -999.0
13-04-2023, 00:05:32,    264,    3.8,    5.2,   0.00,   0.00,  994.4,   74.4, -999.0
13-04-2023, 00:05:42,    282,    3.2,    5.2,   0.00,   0.00,  994.3,   74.2, -999.0
13-04-2023, 00:05:52,    261,    1.3,    5.2,   0.00,   0.00,  994.3,   74.0, -999.0
13-04-2023, 00:06:02,    280,    2.8,    5.2,   0.00,   0.00,  994.3,   74.1, -999.0
13-04-2023, 00:06:12,    281,    2.5,    5.1,   0.00,   0.00,  994.4,   74.1, -999.0
13-04-2023, 00:06:22,    275,    2.2,    5.0,   0.00,   0.00,  994.4,   74.0, -999.0
13-04-2023, 00:06:32,    282,    2.9,    5.1,   0.00,   0.00,  994.4,   74.0, -999.0
13-04-2023, 00:06:42,    280,    1.7,    5.1,   0.00,   0.00,  994.4,   74.0, -999.0
13-04-2023, 00:06:52,    234,    0.5,    5.2,   0.00,   0.00,  994.4,   74.2, -999.0
13-04-2023, 00:07:02,    272,    0.4,    5.2,   0.00,   0.00,  994.3,   74.3, -999.0
13-04-2023, 00:07:12,    229,    0.1,    5.1,   0.00,   0.00,  994.3,   74.3, -999.0
13-04-2023, 00:07:22,    230,    0.1,    5.2,   0.00,   0.00,  994.3,   74.5, -999.0
13-04-2023, 00:07:32,    315,    0.1,    5.1,   0.00,   0.00,  994.3,   74.6, -999.0
13-04-2023, 00:07:42,    305,    1.0,    5.1,   0.00,   0.00,  994.3,   74.9, -999.0
13-04-2023, 00:07:52,    295,    0.3,    5.1,   0.00,   0.00,  994.4,   74.7, -999.0
13-04-2023, 00:08:02,    295,    0.6,    5.2,   0.00,   0.00,  994.4,   74.7, -999.0
13-04-2023, 00:08:12,    273,    3.6,    5.2,   0.00,   0.00,  994.4,   74.9, -999.0
13-04-2023, 00:08:22,    302,    2.5,    5.2,   0.00,   0.00,  994.4,   74.3, -999.0
13-04-2023, 00:08:32,    299,    0.9,    5.2,   0.00,   0.00,  994.4,   74.3, -999.0
13-04-2023, 00:08:42,    292,    0.2,    5.2,   0.00,   0.00,  994.4,   74.3, -999.0
13-04-2023, 00:08:51,    295,    0.6,    5.2,   0.00,   0.00,  994.4,   74.5, -999.0
13-04-2023, 00:09:02,    267,    2.4,    5.2,   0.00,   0.00,  994.5,   74.8, -999.0
13-04-2023, 00:09:12,    324,    3.4,    5.2,   0.00,   0.00,  994.5,   74.8, -999.0
13-04-2023, 00:09:22,    291,    2.7,    5.2,   0.00,   0.00,  994.5,   74.6, -999.0
13-04-2023, 00:09:31,    274,    3.1,    5.2,   0.00,   0.00,  994.5,   74.7, -999.0
13-04-2023, 00:09:42,    217,    1.6,    5.2,   0.00,   0.00,  994.5,   74.5, -999.0
13-04-2023, 00:09:52,    242,    3.8,    5.2,   0.00,   0.00,  994.5,   74.7, -999.0
13-04-2023, 00:10:01,    251,    3.3,    5.2,   0.00,   0.00,  994.5,   74.7, -999.0
13-04-2023, 00:10:12,    242,    2.4,    5.2,   0.00,   0.00,  994.5,   74.5, -999.0
13-04-2023, 00:10:22,    268,    1.2,    5.2,   0.00,   0.00,  994.5,   74.6, -999.0
13-04-2023, 00:10:31,    254,    1.1,    5.2,   0.00,   0.00,  994.5,   74.8, -999.0
13-04-2023, 00:10:41,    251,    1.6,    5.2,   0.00,   0.00,  994.5,   74.8, -999.0
13-04-2023, 00:10:52,    284,    1.1,    5.1,   0.00,   0.00,  994.4,   74.8, -999.0
13-04-2023, 00:11:02,    228,    1.6,    5.2,   0.00,   0.00,  994.5,   74.9, -999.0
13-04-2023, 00:11:11,    245,    0.5,    5.1,   0.00,   0.00,  994.4,   74.9, -999.0
13-04-2023, 00:11:21,    247,    2.5,    5.2,   0.00,   0.00,  994.5,   75.4, -999.0
13-04-2023, 00:11:32,    274,    0.8,    5.1,   0.00,   0.00,  994.5,   75.3, -999.0
13-04-2023, 00:11:41,    274,    2.1,    5.2,   0.00,   0.00,  994.6,   75.2, -999.0
13-04-2023, 00:11:51,    309,    3.0,    5.2,   0.00,   0.00,  994.5,   74.9, -999.0
13-04-2023, 00:12:01,    287,    2.4,    5.2,   0.00,   0.00,  994.5,   74.7, -999.0
13-04-2023, 00:12:12,    240,    1.6,    5.1,   0.00,   0.00,  994.5,   74.5, -999.0
13-04-2023, 00:12:21,    216,    1.2,    5.2,   0.00,   0.00,  994.4,   74.3, -999.0
13-04-2023, 00:12:31,    254,    1.9,    5.2,   0.00,   0.00,  994.5,   74.2, -999.0
13-04-2023, 00:12:41,    293,    2.1,    5.1,   0.00,   0.00,  994.5,   74.0, -999.0
13-04-2023, 00:12:51,    295,    1.3,    5.2,   0.00,   0.00,  994.4,   73.8, -999.0
13-04-2023, 00:13:01,    243,    2.0,    5.2,   0.00,   0.00,  994.5,   73.6, -999.0
13-04-2023, 00:13:11,    269,    0.4,    5.2,   0.00,   0.00,  994.4,   73.4, -999.0
13-04-2023, 00:13:21,    251,    0.2,    5.2,   0.00,   0.00,  994.4,   73.5, -999.0
13-04-2023, 00:13:31,    255,    3.4,    5.2,   0.00,   0.00,  994.5,   73.7, -999.0
13-04-2023, 00:13:41,    263,    2.6,    5.2,   0.00,   0.00,  994.5,   73.7, -999.0
13-04-2023, 00:13:51,    264,    2.2,    5.2,   0.00,   0.00,  994.5,   73.6, -999.0
13-04-2023, 00:14:01,    267,    2.4,    5.3,   0.00,   0.00,  994.5,   73.5, -999.0
13-04-2023, 00:14:11,    268,    1.4,    5.3,   0.00,   0.00,  994.5,   73.4, -999.0
13-04-2023, 00:14:21,    288,    1.8,    5.2,   0.00,   0.00,  994.5,   73.5, -999.0
13-04-2023, 00:14:31,    241,    2.3,    5.3,   0.00,   0.00,  994.5,   73.7, -999.0
13-04-2023, 00:14:41,    265,    3.8,    5.2,   0.00,   0.00,  994.6,   73.6, -999.0
13-04-2023, 00:14:51,    268,    1.8,    5.2,   0.00,   0.00,  994.5,   73.4, -999.0
13-04-2023, 00:15:01,    274,    4.7,    5.2,   0.00,   0.00,  994.5,   73.4, -999.0
13-04-2023, 00:15:11,    258,    5.0,    5.2,   0.00,   0.00,  994.5,   73.2, -999.0
13-04-2023, 00:15:21,    273,    4.0,    5.3,   0.00,   0.00,  994.6,   73.3, -999.0
13-04-2023, 00:15:31,    275,    3.8,    5.1,   0.00,   0.00,  994.5,   73.2, -999.0
13-04-2023, 00:15:41,    289,    2.1,    5.2,   0.00,   0.00,  994.5,   73.2, -999.0
13-04-2023, 00:15:51,    276,    4.5,    5.2,   0.00,   0.00,  994.6,   73.3, -999.0
13-04-2023, 00:16:01,    269,    5.9,    5.2,   0.00,   0.00,  994.6,   73.2, -999.0
13-04-2023, 00:16:11,    268,    5.8,    5.2,   0.00,   0.00,  994.5,   73.1, -999.0
13-04-2023, 00:16:21,    264,    6.1,    5.2,   0.00,   0.00,  994.5,   72.9, -999.0
13-04-2023, 00:16:31,    261,    3.6,    5.2,   0.00,   0.00,  994.5,   72.9, -999.0
13-04-2023, 00:16:41,    267,    2.4,    5.2,   0.00,   0.00,  994.5,   72.9, -999.0
13-04-2023, 00:16:51,    267,    1.3,    5.2,   0.00,   0.00,  994.6,   73.0, -999.0
13-04-2023, 00:17:01,    251,    0.6,    5.2,   0.00,   0.00,  994.5,   73.0, -999.0
13-04-2023, 00:17:11,    277,    1.4,    5.2,   0.00,   0.00,  994.5,   73.4, -999.0
13-04-2023, 00:17:21,    273,    2.1,    5.2,   0.00,   0.00,  994.6,   73.6, -999.0
13-04-2023, 00:17:31,    249,    0.6,    5.2,   0.00,   0.00,  994.6,   73.8, -999.0
13-04-2023, 00:17:41,    264,    2.4,    5.2,   0.00,   0.00,  994.6,   73.9, -999.0
13-04-2023, 00:17:51,    285,    5.1,    5.2,   0.00,   0.00,  994.6,   73.9, -999.0
13-04-2023, 00:18:01,    327,    5.8,    5.2,   0.00,   0.00,  994.5,   73.5, -999.0
13-04-2023, 00:18:11,    267,    3.3,    5.2,   0.00,   0.00,  994.5,   73.1, -999.0
13-04-2023, 00:18:21,    220,    2.7,    5.2,   0.00,   0.00,  994.6,   73.1, -999.0
13-04-2023, 00:18:31,    226,    1.9,    5.3,   0.00,   0.00,  994.5,   73.4, -999.0
13-04-2023, 00:18:41,    266,    3.1,    5.2,   0.00,   0.00,  994.5,   73.5, -999.0
13-04-2023, 00:18:51,    265,    1.7,    5.2,   0.00,   0.00,  994.6,   73.5, -999.0
13-04-2023, 00:19:01,    282,    0.9,    5.2,   0.00,   0.00,  994.5,   73.3, -999.0
13-04-2023, 00:19:11,    247,    1.4,    5.2,   0.00,   0.00,  994.6,   73.5, -999.0
13-04-2023, 00:19:21,    266,    1.7,    5.2,   0.00,   0.00,  994.6,   73.6, -999.0
13-04-2023, 00:19:31,    282,    4.5,    5.2,   0.00,   0.00,  994.6,   73.6, -999.0
13-04-2023, 00:19:40,    266,    2.6,    5.1,   0.00,   0.00,  994.6,   73.5, -999.0
13-04-2023, 00:19:51,    279,    1.0,    5.1,   0.00,   0.00,  994.6,   73.5, -999.0
13-04-2023, 00:20:01,    276,    0.9,    5.2,   0.00,   0.00,  994.6,   73.7, -999.0
13-04-2023, 00:20:11,    276,    0.0,    5.2,   0.00,   0.00,  994.5,   73.7, -999.0
13-04-2023, 00:20:20,    248,    0.3,    4.9,   0.00,   0.00,  994.5,   73.6, -999.0
13-04-2023, 00:20:31,    254,    2.2,    5.2,   0.00,   0.00,  994.6,   73.8, -999.0
13-04-2023, 00:20:41,    339,    1.2,    5.2,   0.00,   0.00,  994.6,   73.7, -999.0
13-04-2023, 00:20:50,    232,    0.4,    5.2,   0.00,   0.00,  994.5,   73.7, -999.0
13-04-2023, 00:21:01,    267,    1.9,    5.2,   0.00,   0.00,  994.6,   74.0, -999.0
13-04-2023, 00:21:11,    266,    0.5,    5.2,   0.00,   0.00,  994.6,   73.8, -999.0
13-04-2023, 00:21:21,    263,    0.9,    5.3,   0.00,   0.00,  994.6,   73.8, -999.0
13-04-2023, 00:21:30,    264,    0.4,    5.1,   0.00,   0.00,  994.6,   73.8, -999.0
13-04-2023, 00:21:41,    230,    2.0,    5.2,   0.00,   0.00,  994.7,   74.1, -999.0
13-04-2023, 00:21:51,    249,    3.0,    5.3,   0.00,   0.00,  994.7,   74.0, -999.0
13-04-2023, 00:22:00,    321,    1.2,    5.1,   0.00,   0.00,  994.7,   74.0, -999.0
13-04-2023, 00:22:10,    274,    1.6,    5.2,   0.00,   0.00,  994.6,   74.0, -999.0
13-04-2023, 00:22:21,    274,    0.6,    5.2,   0.00,   0.00,  994.7,   74.0, -999.0
13-04-2023, 00:22:30,    235,    0.8,    5.1,   0.00,   0.00,  994.6,   73.8, -999.0
13-04-2023, 00:22:40,    240,    2.2,    5.2,   0.00,   0.00,  994.7,   74.2, -999.0
13-04-2023, 00:22:50,    270,    4.1,    5.2,   0.00,   0.00,  994.7,   74.1, -999.0
13-04-2023, 00:23:01,    266,    4.1,    5.2,   0.00,   0.00,  994.6,   74.0, -999.0
13-04-2023, 00:23:10,    250,    2.1,    5.2,   0.00,   0.00,  994.6,   74.0, -999.0
13-04-2023, 00:23:20,    253,    1.7,    5.1,   0.00,   0.00,  994.6,   74.0, -999.0
13-04-2023, 00:23:30,    271,    1.6,    5.2,   0.00,   0.00,  994.7,   74.0, -999.0
13-04-2023, 00:23:40,    263,    1.7,    5.1,   0.00,   0.00,  994.7,   74.2, -999.0
13-04-2023, 00:23:50,    234,    4.6,    5.3,   0.00,   0.00,  994.7,   74.1, -999.0
13-04-2023, 00:24:00,    320,    3.0,    5.2,   0.00,   0.00,  994.6,   73.9, -999.0
13-04-2023, 00:24:10,    284,    2.5,    5.2,   0.00,   0.00,  994.6,   73.8, -999.0
13-04-2023, 00:24:20,    271,    0.8,    5.2,   0.00,   0.00,  994.6,   73.8, -999.0
13-04-2023, 00:24:30,    229,    1.4,    5.2,   0.00,   0.00,  994.7,   73.8, -999.0
13-04-2023, 00:24:40,    245,    1.5,    5.2,   0.00,   0.00,  994.7,   73.9, -999.0
13-04-2023, 00:24:50,    266,    1.8,    5.2,   0.00,   0.00,  994.7,   74.1, -999.0
13-04-2023, 00:25:00,    306,    1.8,    5.2,   0.00,   0.00,  994.7,   74.1, -999.0
13-04-2023, 00:25:10,    285,    0.6,    5.2,   0.00,   0.00,  994.7,   74.0, -999.0
13-04-2023, 00:25:20,    283,    0.1,    5.1,   0.00,   0.00,  994.7,   73.9, -999.0
13-04-2023, 00:25:30,    280,    1.5,    5.2,   0.00,   0.00,  994.7,   74.0, -999.0
13-04-2023, 00:25:40,    260,    2.0,    5.2,   0.00,   0.00,  994.7,   74.0, -999.0
13-04-2023, 00:25:50,    255,    1.8,    5.3,   0.00,   0.00,  994.7,   74.0, -999.0
13-04-2023, 00:26:00,    245,    1.5,    5.2,   0.00,   0.00,  994.7,   73.7, -999.0
13-04-2023, 00:26:10,    292,    2.5,    5.2,   0.00,   0.00,  994.7,   73.6, -999.0
13-04-2023, 00:26:20,    258,    3.9,    5.2,   0.00,   0.00,  994.7,   73.5, -999.0
13-04-2023, 00:26:30,    275,    3.8,    5.2,   0.00,   0.00,  994.7,   73.4, -999.0
13-04-2023, 00:26:40,    263,    1.3,    5.2,   0.00,   0.00,  994.7,   73.2, -999.0
13-04-2023, 00:26:50,    227,    0.3,    5.2,   0.00,   0.00,  994.7,   72.9, -999.0
13-04-2023, 00:27:00,    226,    0.4,    5.2,   0.00,   0.00,  994.6,   73.1, -999.0
13-04-2023, 00:27:10,    272,    0.5,    5.1,   0.00,   0.00,  994.7,   73.2, -999.0
13-04-2023, 00:27:20,    263,    1.7,    5.2,   0.00,   0.00,  994.7,   73.5, -999.0
13-04-2023, 00:27:30,    263,    2.6,    5.2,   0.00,   0.00,  994.7,   73.5, -999.0
13-04-2023, 00:27:40,    255,    1.6,    5.2,   0.00,   0.00,  994.7,   73.4, -999.0
13-04-2023, 00:27:50,    255,    0.0,    5.1,   0.00,   0.00,  994.6,   73.2, -999.0
13-04-2023, 00:28:00,    286,    1.1,    5.2,   0.00,   0.00,  994.7,   73.5, -999.0
13-04-2023, 00:28:10,    245,    2.7,    5.2,   0.00,   0.00,  994.7,   73.7, -999.0
13-04-2023, 00:28:20,    248,    1.7,    5.1,   0.00,   0.00,  994.7,   73.6, -999.0
13-04-2023, 00:28:30,    245,    0.8,    5.2,   0.00,   0.00,  994.7,   73.8, -999.0
13-04-2023, 00:28:40,    272,    2.6,    5.2,   0.00,   0.00,  994.8,   73.9, -999.0
13-04-2023, 00:28:50,    250,    1.9,    5.2,   0.00,   0.00,  994.7,   73.8, -999.0
13-04-2023, 00:29:00,    248,    1.5,    5.2,   0.00,   0.00,  994.7,   73.6, -999.0
13-04-2023, 00:29:10,    273,    2.1,    5.2,   0.00,   0.00,  994.7,   73.7, -999.0
13-04-2023, 00:29:20,    257,    2.0,    5.3,   0.00,   0.00,  994.7,   73.7, -999.0
13-04-2023, 00:29:30,    232,    2.6,    5.2,   0.00,   0.00,  994.7,   73.6, -999.0
13-04-2023, 00:29:40,    265,    5.1,    5.2,   0.00,   0.00,  994.8,   73.6, -999.0
13-04-2023, 00:29:50,    252,    3.2,    5.2,   0.00,   0.00,  994.7,   73.5, -999.0
13-04-2023, 00:30:00,    260,    3.6,    5.2,   0.00,   0.00,  994.7,   73.5, -999.0
13-04-2023, 00:30:10,    275,    3.1,    5.2,   0.00,   0.00,  994.8,   73.5, -999.0
13-04-2023, 00:30:20,    305,    0.5,    5.2,   0.00,   0.00,  994.7,   73.4, -999.0
13-04-2023, 00:30:29,    256,    0.5,    5.1,   0.00,   0.00,  994.7,   73.6, -999.0
13-04-2023, 00:30:40,    267,    0.3,    5.1,   0.00,   0.00,  994.7,   73.5, -999.0
13-04-2023, 00:30:50,    268,    0.6,    5.2,   0.00,   0.00,  994.7,   73.7, -999.0
13-04-2023, 00:31:00,    252,    1.2,    5.1,   0.00,   0.00,  994.8,   73.9, -999.0
13-04-2023, 00:31:09,    229,    1.2,    5.1,   0.00,   0.00,  994.7,   73.9, -999.0
13-04-2023, 00:31:20,    310,    2.4,    5.2,   0.00,   0.00,  994.7,   73.9, -999.0
13-04-2023, 00:31:30,    266,    3.1,    5.2,   0.00,   0.00,  994.7,   73.7, -999.0
13-04-2023, 00:31:39,    255,    2.0,    5.2,   0.00,   0.00,  994.8,   73.7, -999.0
13-04-2023, 00:31:50,    285,    2.2,    5.2,   0.00,   0.00,  994.8,   73.8, -999.0
13-04-2023, 00:32:00,    256,    5.4,    5.2,   0.00,   0.00,  994.8,   73.9, -999.0
13-04-2023, 00:32:09,    280,    4.0,    5.1,   0.00,   0.00,  994.7,   73.6, -999.0
13-04-2023, 00:32:19,    249,    3.9,    5.1,   0.00,   0.00,  994.8,   73.2, -999.0
13-04-2023, 00:32:30,    318,    1.6,    5.2,   0.00,   0.00,  994.8,   73.2, -999.0
13-04-2023, 00:32:40,    295,    1.3,    5.2,   0.00,   0.00,  994.7,   73.4, -999.0
13-04-2023, 00:32:49,    268,    0.7,    5.1,   0.00,   0.00,  994.8,   73.2, -999.0
13-04-2023, 00:32:59,    215,    0.0,    5.1,   0.00,   0.00,  994.7,   73.0, -999.0
13-04-2023, 00:33:10,    220,    0.1,    5.0,   0.00,   0.00,  994.7,   73.3, -999.0
13-04-2023, 00:33:19,    244,    2.8,    5.2,   0.00,   0.00,  994.8,   73.6, -999.0
13-04-2023, 00:33:29,    219,    3.9,    5.2,   0.00,   0.00,  994.8,   73.7, -999.0
13-04-2023, 00:33:39,    230,    2.2,    5.1,   0.00,   0.00,  994.8,   73.5, -999.0
13-04-2023, 00:33:50,    221,    3.8,    5.2,   0.00,   0.00,  994.8,   73.5, -999.0
13-04-2023, 00:33:59,    257,    3.5,    5.1,   0.00,   0.00,  994.8,   73.6, -999.0
13-04-2023, 00:34:09,    230,    2.5,    5.2,   0.00,   0.00,  994.8,   73.5, -999.0
13-04-2023, 00:34:20,    258,    0.8,    5.2,   0.00,   0.00,  994.8,   73.5, -999.0
13-04-2023, 00:34:29,    256,    0.2,    5.1,   0.00,   0.00,  994.7,   73.2, -999.0
13-04-2023, 00:34:39,    279,    3.5,    5.2,   0.00,   0.00,  994.8,   73.6, -999.0
13-04-2023, 00:34:49,    258,    1.6,    5.1,   0.00,   0.00,  994.7,   73.6, -999.0
13-04-2023, 00:34:59,    258,    1.1,    5.2,   0.00,   0.00,  994.8,   73.6, -999.0
13-04-2023, 00:35:09,    257,    0.1,    5.1,   0.00,   0.00,  994.7,   73.5, -999.0
13-04-2023, 00:35:19,    268,    2.6,    5.2,   0.00,   0.00,  994.8,   74.0, -999.0
13-04-2023, 00:35:29,    268,    2.9,    5.2,   0.00,   0.00,  994.8,   73.8, -999.0
13-04-2023, 00:35:39,    269,    3.1,    5.1,   0.00,   0.00,  994.8,   73.6, -999.0
13-04-2023, 00:35:49,    291,    2.5,    5.1,   0.00,   0.00,  994.8,   73.7, -999.0
13-04-2023, 00:35:59,    242,    1.5,    5.1,   0.00,   0.00,  994.8,   73.6, -999.0
13-04-2023, 00:36:09,    247,    3.7,    5.1,   0.00,   0.00,  994.8,   73.5, -999.0
13-04-2023, 00:36:19,    262,    1.6,    5.1,   0.00,   0.00,  994.8,   73.6, -999.0
13-04-2023, 00:36:29,    266,    0.7,    5.1,   0.00,   0.00,  994.8,   73.6, -999.0
13-04-2023, 00:36:39,    248,    0.7,    5.1,   0.00,   0.00,  994.8,   73.9, -999.0
13-04-2023, 00:36:49,    304,    0.6,    5.1,   0.00,   0.00,  994.7,   73.7, -999.0
13-04-2023, 00:36:59,    239,    5.0,    5.1,   0.00,   0.00,  994.9,   73.8, -999.0
13-04-2023, 00:37:09,    238,    4.4,    5.1,   0.00,   0.00,  994.9,   73.8, -999.0
13-04-2023, 00:37:19,    279,    2.6,    5.2,   0.00,   0.00,  994.9,   73.8, -999.0
13-04-2023, 00:37:29,    245,    1.9,    5.2,   0.00,   0.00,  994.8,   73.6, -999.0
13-04-2023, 00:37:39,    245,    3.6,    5.1,   0.00,   0.00,  994.8,   73.6, -999.0
13-04-2023, 00:37:49,    261,    2.1,    5.1,   0.00,   0.00,  994.9,   73.6, -999.0
13-04-2023, 00:37:59,    259,    3.0,    5.1,   0.00,   0.00,  994.9,   73.7, -999.0
13-04-2023, 00:38:09,    274,    4.1,    5.1,   0.00,   0.00,  994.9,   73.7, -999.0
13-04-2023, 00:38:19,    209,    3.1,    5.1,   0.00,   0.00,  994.9,   73.7, -999.0
13-04-2023, 00:38:29,    244,    2.6,    5.1,   0.00,   0.00,  994.9,   73.8, -999.0
13-04-2023, 00:38:39,    239,    3.2,    5.1,   0.00,   0.00,  994.9,   73.7, -999.0
13-04-2023, 00:38:49,    239,    1.7,    5.0,   0.00,   0.00,  994.9,   73.8, -999.0
13-04-2023, 00:38:59,    238,    0.1,    5.1,   0.00,   0.00,  994.9,   73.7, -999.0
13-04-2023, 00:39:09,    269,    0.2,    5.0,   0.00,   0.00,  994.8,   73.7, -999.0
13-04-2023, 00:39:19,    250,    2.3,    5.1,   0.00,   0.00,  994.9,   74.1, -999.0
13-04-2023, 00:39:29,    260,    3.1,    5.1,   0.00,   0.00,  994.9,   74.2, -999.0
13-04-2023, 00:39:39,    257,    2.8,    5.1,   0.00,   0.00,  994.9,   74.1, -999.0
13-04-2023, 00:39:49,    269,    1.9,    5.0,   0.00,   0.00,  994.9,   74.1, -999.0
13-04-2023, 00:39:59,    288,    1.6,    5.1,   0.00,   0.00,  994.9,   74.2, -999.0
13-04-2023, 00:40:09,    249,    2.0,    5.1,   0.00,   0.00,  994.9,   74.2, -999.0
13-04-2023, 00:40:19,    253,    3.5,    5.1,   0.00,   0.00,  994.9,   74.2, -999.0
13-04-2023, 00:40:29,    236,    2.1,    5.1,   0.00,   0.00,  994.9,   74.3, -999.0
13-04-2023, 00:40:39,    278,    1.3,    5.1,   0.00,   0.00,  994.9,   74.3, -999.0
13-04-2023, 00:40:49,    237,    1.1,    5.0,   0.00,   0.00,  994.8,   74.4, -999.0
13-04-2023, 00:40:59,    245,    0.7,    5.0,   0.00,   0.00,  994.9,   74.4, -999.0
13-04-2023, 00:41:09,    246,    1.1,    5.1,   0.00,   0.00,  994.9,   74.5, -999.0
13-04-2023, 00:41:19,    249,    1.5,    5.1,   0.00,   0.00,  994.9,   74.6, -999.0
13-04-2023, 00:41:29,    253,    3.5,    5.0,   0.00,   0.00,  994.9,   74.6, -999.0
13-04-2023, 00:41:39,    264,    1.6,    5.0,   0.00,   0.00,  994.9,   74.6, -999.0
13-04-2023, 00:41:48,    265,    3.1,    5.0,   0.00,   0.00,  994.9,   74.7, -999.0
13-04-2023, 00:41:59,    245,    1.9,    5.0,   0.00,   0.00,  994.9,   74.7, -999.0
13-04-2023, 00:42:09,    248,    3.2,    5.0,   0.00,   0.00,  994.9,   74.7, -999.0
13-04-2023, 00:42:19,    231,    2.4,    5.0,   0.00,   0.00,  994.9,   74.6, -999.0
13-04-2023, 00:42:28,    279,    0.7,    5.0,   0.00,   0.00,  994.9,   75.0, -999.0
13-04-2023, 00:42:39,    280,    0.2,    5.0,   0.00,   0.00,  994.9,   74.9, -999.0
13-04-2023, 00:42:49,    280,    0.6,    5.0,   0.00,   0.00,  994.9,   75.2, -999.0
13-04-2023, 00:42:58,    280,    0.3,    5.0,   0.00,   0.00,  994.9,   75.1, -999.0
13-04-2023, 00:43:09,    299,    0.9,    5.0,   0.00,   0.00,  994.9,   75.2, -999.0
13-04-2023, 00:43:19,    260,    1.3,    5.0,   0.00,   0.00,  994.9,   75.4, -999.0
13-04-2023, 00:43:28,    265,    3.5,    5.0,   0.00,   0.00,  994.9,   75.4, -999.0
13-04-2023, 00:43:38,    225,    1.8,    5.0,   0.00,   0.00,  994.8,   75.2, -999.0
13-04-2023, 00:43:49,    226,    0.5,    5.0,   0.00,   0.00,  994.9,   75.1, -999.0
13-04-2023, 00:43:59,    239,    4.2,    5.0,   0.00,   0.00,  994.9,   75.4, -999.0
13-04-2023, 00:44:08,    249,    3.8,    5.0,   0.00,   0.00,  994.9,   75.3, -999.0
13-04-2023, 00:44:18,    264,    1.2,    4.9,   0.00,   0.00,  994.9,   75.3, -999.0
13-04-2023, 00:44:29,    260,    0.8,    5.0,   0.00,   0.00,  994.9,   75.6, -999.0
13-04-2023, 00:44:38,    263,    4.2,    4.9,   0.00,   0.00,  994.9,   75.6, -999.0
13-04-2023, 00:44:48,    258,    3.7,    4.9,   0.00,   0.00,  994.9,   75.6, -999.0
13-04-2023, 00:44:58,    209,    0.7,    4.8,   0.00,   0.00,  994.9,   75.5, -999.0
13-04-2023, 00:45:09,    275,    1.2,    4.9,   0.00,   0.00,  994.9,   75.8, -999.0
13-04-2023, 00:45:18,    251,    2.5,    4.8,   0.00,   0.00,  995.0,   75.8, -999.0
13-04-2023, 00:45:28,    265,    1.0,    4.9,   0.00,   0.00,  994.9,   75.9, -999.0
13-04-2023, 00:45:38,    229,    3.0,    4.9,   0.00,   0.00,  995.0,   76.0, -999.0
13-04-2023, 00:45:48,    310,    1.6,    4.9,   0.00,   0.00,  994.9,   76.0, -999.0
13-04-2023, 00:45:58,    298,    0.3,    4.9,   0.00,   0.00,  994.9,   76.0, -999.0
13-04-2023, 00:46:08,    262,    1.8,    4.9,   0.00,   0.00,  994.9,   76.2, -999.0
13-04-2023, 00:46:19,    244,    1.9,    4.9,   0.00,   0.00,  994.9,   76.3, -999.0
13-04-2023, 00:46:28,    278,    1.5,    4.9,   0.00,   0.00,  994.9,   76.1, -999.0
13-04-2023, 00:46:38,    270,    2.6,    4.9,   0.00,   0.00,  994.9,   76.2, -999.0
13-04-2023, 00:46:48,    244,    6.2,    4.9,   0.00,   0.00,  994.9,   76.2, -999.0